Location: Unspecified
(0.0000°N, 0.0000°E)
Time: 23:03:00
(UTC+00:00)

deb Blok Kosmos - Pass Details

Date: 11 December 2025
Orbit: 1262 x 1713 km, 55.4° (Epoch: 19 January)

Event Time Altitude Azimuth Distance (km) Brightness Sun altitude
Rises 22:20:44 0° 250° (WSW) 4,649 ? -57.7°
Reaches altitude 10° 22:25:07 10° 268° (W) 3,750 ? -58.5°
Enters shadow 22:25:19 10° 269° (W) 3,719 ? -58.5°
